AAL2081 KPHX-KLAS

Flight info

Callsign AAL2081
Flight time 0h 48m
Altitude 28000
Route ZEPER2 RRSTA ELLDA RKSTR4
Aircraft B77W/H-SDE1E2E3FGHIJ2J3J4J5M1RWXY/LB1D1

Departure

Time 2026-05-05 03:09
Airport Phoenix Sky Harbor International Airport (KPHX)

Arrival

Time 2026-05-05 03:57
Airport Harry Reid International Airport (KLAS)
Time Latitude Longitude Altitude Speed Heading
2026-05-05 02:54 33.43850 -111.99646 1134 ft 0 kts 211°
2026-05-05 03:01 33.43852 -111.99644 1126 ft 2 kts 210°
2026-05-05 03:01 33.43869 -111.99635 1134 ft 3 kts 192°
2026-05-05 03:02 33.43887 -111.99634 1135 ft 3 kts 156°
2026-05-05 03:02 33.43901 -111.99646 1136 ft 3 kts 111°
2026-05-05 03:02 33.43904 -111.99659 1136 ft 1 kts 90°
2026-05-05 03:02 33.43904 -111.99660 1136 ft 1 kts 90°
2026-05-05 03:05 33.43904 -111.99608 1132 ft 17 kts 90°
2026-05-05 03:05 33.43903 -111.99462 1130 ft 19 kts 90°
2026-05-05 03:05 33.43904 -111.99335 1130 ft 12 kts 90°
2026-05-05 03:05 33.43890 -111.99246 1134 ft 10 kts 134°
2026-05-05 03:06 33.43796 -111.99225 1132 ft 18 kts 180°
2026-05-05 03:06 33.43665 -111.99227 1132 ft 15 kts 180°
2026-05-05 03:06 33.43543 -111.99228 1134 ft 23 kts 180°
2026-05-05 03:06 33.43435 -111.99243 1132 ft 10 kts 201°
2026-05-05 03:07 33.43359 -111.99253 1132 ft 11 kts 178°
2026-05-05 03:07 33.43307 -111.99251 1132 ft 10 kts 178°
2026-05-05 03:07 33.43234 -111.99255 1134 ft 10 kts 192°
2026-05-05 03:07 33.43175 -111.99301 1139 ft 9 kts 221°
2026-05-05 03:08 33.43163 -111.99313 1140 ft 3 kts 219°
2026-05-05 03:08 33.43123 -111.99348 1141 ft 7 kts 225°
2026-05-05 03:08 33.43103 -111.99422 1141 ft 11 kts 267°
2026-05-05 03:08 33.43104 -111.99505 1137 ft 20 kts 270°
2026-05-05 03:09 33.43104 -111.99995 1136 ft 101 kts 270°
2026-05-05 03:09 33.43102 -112.01150 1140 ft 172 kts 269°
2026-05-05 03:09 33.43091 -112.02725 1523 ft 197 kts 267°
2026-05-05 03:09 33.43068 -112.04366 2400 ft 196 kts 270°
2026-05-05 03:10 33.43128 -112.06007 3231 ft 203 kts 272°
2026-05-05 03:10 33.43209 -112.07802 3646 ft 229 kts 271°
2026-05-05 03:10 33.43272 -112.09748 4385 ft 239 kts 270°
2026-05-05 03:10 33.43326 -112.11757 5236 ft 245 kts 269°
2026-05-05 03:11 33.43377 -112.13797 6154 ft 247 kts 267°
2026-05-05 03:11 33.43436 -112.15846 7134 ft 247 kts 270°
2026-05-05 03:11 33.43956 -112.17831 8013 ft 258 kts 301°
2026-05-05 03:11 33.45329 -112.19244 8946 ft 270 kts 331°
2026-05-05 03:12 33.47194 -112.19820 9668 ft 289 kts 349°
2026-05-05 03:12 33.49262 -112.19978 10230 ft 305 kts 354°
2026-05-05 03:12 33.51476 -112.20036 10565 ft 333 kts 355°
2026-05-05 03:12 33.53899 -112.20093 10799 ft 364 kts 355°
2026-05-05 03:13 33.56489 -112.20180 11464 ft 378 kts 354°
2026-05-05 03:13 33.59156 -112.20291 12442 ft 386 kts 354°
2026-05-05 03:13 33.61824 -112.20470 13540 ft 391 kts 349°
2026-05-05 03:13 33.64512 -112.20997 14644 ft 391 kts 341°
2026-05-05 03:14 33.67138 -112.21832 15799 ft 390 kts 339°
2026-05-05 03:14 33.69766 -112.22704 17005 ft 391 kts 339°
2026-05-05 03:14 33.72385 -112.23573 18210 ft 392 kts 339°
2026-05-05 03:14 33.75036 -112.24447 19043 ft 400 kts 339°
2026-05-05 03:15 33.77764 -112.25343 19634 ft 412 kts 338°
2026-05-05 03:15 33.80570 -112.26258 20332 ft 423 kts 338°
2026-05-05 03:15 33.83444 -112.27190 21067 ft 432 kts 338°
2026-05-05 03:15 33.86379 -112.28138 21798 ft 441 kts 337°
2026-05-05 03:16 33.89366 -112.29103 22510 ft 449 kts 337°
2026-05-05 03:16 33.92417 -112.30088 23242 ft 456 kts 336°
2026-05-05 03:16 33.95496 -112.31082 24050 ft 458 kts 336°
2026-05-05 03:16 33.98558 -112.32080 25029 ft 453 kts 334°
2026-05-05 03:17 34.01460 -112.33383 26038 ft 437 kts 324°
2026-05-05 03:17 34.04100 -112.35081 27035 ft 424 kts 317°
2026-05-05 03:17 34.06486 -112.37045 27705 ft 417 kts 310°
2026-05-05 03:17 34.08715 -112.39278 27893 ft 418 kts 308°
2026-05-05 03:18 34.10935 -112.41547 27899 ft 417 kts 308°
2026-05-05 03:18 34.13141 -112.43802 27900 ft 414 kts 308°
2026-05-05 03:18 34.15340 -112.46038 27915 ft 411 kts 307°
2026-05-05 03:18 34.17525 -112.48258 27892 ft 411 kts 307°
2026-05-05 03:19 34.21900 -112.52681 27884 ft 409 kts 307°
2026-05-05 03:19 34.24078 -112.54880 27884 ft 408 kts 307°
2026-05-05 03:19 34.26256 -112.57080 27882 ft 407 kts 307°
2026-05-05 03:20 34.28430 -112.59278 27892 ft 407 kts 307°
2026-05-05 03:20 34.30608 -112.61483 27886 ft 409 kts 307°
2026-05-05 03:20 34.32795 -112.63698 27891 ft 410 kts 307°
2026-05-05 03:20 34.34953 -112.65887 27903 ft 411 kts 306°
2026-05-05 03:21 34.37152 -112.68117 27896 ft 412 kts 307°
2026-05-05 03:21 34.39354 -112.70350 27886 ft 413 kts 307°
2026-05-05 03:21 34.41569 -112.72598 27881 ft 414 kts 307°
2026-05-05 03:21 34.43782 -112.74845 27885 ft 415 kts 307°
2026-05-05 03:22 34.45996 -112.77095 27887 ft 416 kts 307°
2026-05-05 03:22 34.48215 -112.79351 27885 ft 416 kts 306°
2026-05-05 03:22 34.50406 -112.81581 27894 ft 416 kts 306°
2026-05-05 03:22 34.52625 -112.83840 27882 ft 416 kts 306°
2026-05-05 03:23 34.54838 -112.86093 27890 ft 414 kts 306°
2026-05-05 03:23 34.57033 -112.88325 27870 ft 409 kts 306°
2026-05-05 03:23 34.59199 -112.90539 27845 ft 406 kts 306°
2026-05-05 03:23 34.61348 -112.92748 27863 ft 404 kts 306°
2026-05-05 03:24 34.63500 -112.94960 27872 ft 404 kts 306°
2026-05-05 03:24 34.65649 -112.97168 27866 ft 405 kts 306°
2026-05-05 03:24 34.67799 -112.99384 27862 ft 405 kts 306°
2026-05-05 03:24 34.69950 -113.01597 27867 ft 405 kts 306°
2026-05-05 03:25 34.72106 -113.03815 27875 ft 407 kts 306°
2026-05-05 03:25 34.74266 -113.06039 27894 ft 408 kts 306°
2026-05-05 03:25 34.76316 -113.08326 27871 ft 400 kts 301°
2026-05-05 03:25 34.78250 -113.10758 27882 ft 399 kts 301°
2026-05-05 03:26 34.80166 -113.13206 27876 ft 400 kts 300°
2026-05-05 03:26 34.82085 -113.15666 27862 ft 400 kts 301°
2026-05-05 03:26 34.84007 -113.18120 27863 ft 401 kts 301°
2026-05-05 03:26 34.85935 -113.20572 27862 ft 401 kts 301°
2026-05-05 03:27 34.87864 -113.23020 27860 ft 400 kts 301°
2026-05-05 03:27 34.89793 -113.25465 27856 ft 400 kts 301°
2026-05-05 03:27 34.91719 -113.27910 27849 ft 399 kts 301°
2026-05-05 03:27 34.93637 -113.30348 27882 ft 398 kts 301°
2026-05-05 03:28 34.95556 -113.32786 27874 ft 398 kts 301°
2026-05-05 03:28 34.97474 -113.35226 27867 ft 398 kts 301°
2026-05-05 03:28 34.99398 -113.37657 27861 ft 399 kts 303°
2026-05-05 03:28 35.01480 -113.39952 27869 ft 406 kts 307°
2026-05-05 03:29 35.03645 -113.42106 27855 ft 408 kts 309°
2026-05-05 03:29 35.05879 -113.44265 27876 ft 408 kts 309°
2026-05-05 03:29 35.08103 -113.46424 27865 ft 408 kts 309°
2026-05-05 03:29 35.10317 -113.48596 27856 ft 407 kts 308°
2026-05-05 03:30 35.12511 -113.50783 27866 ft 407 kts 308°
2026-05-05 03:30 35.14695 -113.52977 27862 ft 407 kts 308°
2026-05-05 03:30 35.16880 -113.55179 27868 ft 407 kts 308°
2026-05-05 03:30 35.19060 -113.57381 27867 ft 403 kts 308°
2026-05-05 03:31 35.21197 -113.59529 27852 ft 391 kts 308°
2026-05-05 03:31 35.23263 -113.61617 27423 ft 388 kts 308°
2026-05-05 03:31 35.25325 -113.63705 27182 ft 380 kts 308°
2026-05-05 03:31 35.27340 -113.65743 26951 ft 372 kts 308°
2026-05-05 03:32 35.29323 -113.67751 26608 ft 368 kts 308°
2026-05-05 03:32 35.31288 -113.69747 26188 ft 366 kts 309°
2026-05-05 03:32 35.33248 -113.71739 25742 ft 365 kts 309°
2026-05-05 03:32 35.35198 -113.73720 25331 ft 363 kts 310°
2026-05-05 03:33 35.37112 -113.75665 24960 ft 361 kts 310°
2026-05-05 03:33 35.39043 -113.77628 24558 ft 359 kts 310°
2026-05-05 03:33 35.40961 -113.79579 24157 ft 357 kts 311°
2026-05-05 03:33 35.42866 -113.81518 23788 ft 355 kts 311°
2026-05-05 03:34 35.44756 -113.83444 23426 ft 352 kts 311°
2026-05-05 03:34 35.46638 -113.85363 22994 ft 351 kts 311°
2026-05-05 03:34 35.48511 -113.87274 22545 ft 350 kts 311°
2026-05-05 03:34 35.50379 -113.89182 22050 ft 350 kts 312°
2026-05-05 03:35 35.52248 -113.91093 21578 ft 350 kts 312°
2026-05-05 03:35 35.54118 -113.93005 21141 ft 349 kts 312°
2026-05-05 03:35 35.55984 -113.94913 20725 ft 348 kts 312°
2026-05-05 03:35 35.57837 -113.96809 20308 ft 347 kts 313°
2026-05-05 03:36 35.59664 -113.98680 19888 ft 346 kts 313°
2026-05-05 03:36 35.61512 -114.00574 19467 ft 345 kts 313°
2026-05-05 03:36 35.63356 -114.02466 19068 ft 345 kts 313°
2026-05-05 03:36 35.65195 -114.04352 18679 ft 344 kts 313°
2026-05-05 03:37 35.67029 -114.06236 18297 ft 343 kts 313°
2026-05-05 03:37 35.68863 -114.08120 17890 ft 343 kts 314°
2026-05-05 03:37 35.70693 -114.10001 17483 ft 342 kts 314°
2026-05-05 03:37 35.72510 -114.11868 17117 ft 339 kts 314°
2026-05-05 03:38 35.74315 -114.13724 16738 ft 336 kts 314°
2026-05-05 03:38 35.76013 -114.15652 16434 ft 325 kts 302°
2026-05-05 03:38 35.77148 -114.17981 16121 ft 313 kts 291°
2026-05-05 03:38 35.78143 -114.20352 15756 ft 312 kts 291°
2026-05-05 03:39 35.79142 -114.22687 15349 ft 313 kts 292°
2026-05-05 03:39 35.80167 -114.25051 15002 ft 312 kts 292°
2026-05-05 03:39 35.81196 -114.27395 14653 ft 310 kts 293°
2026-05-05 03:39 35.82225 -114.29732 14292 ft 310 kts 293°
2026-05-05 03:40 35.83251 -114.32058 13983 ft 308 kts 294°
2026-05-05 03:40 35.84318 -114.34346 13713 ft 308 kts 299°
2026-05-05 03:40 35.85597 -114.36480 13318 ft 310 kts 303°
2026-05-05 03:40 35.86943 -114.38551 12990 ft 308 kts 304°
2026-05-05 03:41 35.88278 -114.40602 12680 ft 305 kts 304°
2026-05-05 03:41 35.89591 -114.42649 12341 ft 304 kts 304°
2026-05-05 03:41 35.90889 -114.44698 11982 ft 303 kts 304°
2026-05-05 03:41 35.92165 -114.46735 11600 ft 303 kts 304°
2026-05-05 03:42 35.93448 -114.48790 11295 ft 301 kts 304°
2026-05-05 03:42 35.94717 -114.50827 11007 ft 298 kts 304°
2026-05-05 03:42 35.95973 -114.52845 10717 ft 295 kts 304°
2026-05-05 03:42 35.97217 -114.54860 10432 ft 293 kts 304°
2026-05-05 03:43 35.98444 -114.56853 10154 ft 290 kts 304°
2026-05-05 03:43 35.99397 -114.58402 9938 ft 289 kts 304°
2026-05-05 03:48 36.00376 -114.59992 9704 ft 287 kts 305°
2026-05-05 03:49 36.01578 -114.61950 9452 ft 285 kts 304°
2026-05-05 03:49 36.02783 -114.63899 9119 ft 285 kts 304°
2026-05-05 03:49 36.03966 -114.65849 8847 ft 281 kts 301°
2026-05-05 03:49 36.04958 -114.67787 8563 ft 257 kts 297°
2026-05-05 03:50 36.05859 -114.69669 8351 ft 252 kts 296°
2026-05-05 03:50 36.06754 -114.71524 8091 ft 250 kts 296°
2026-05-05 03:50 36.07366 -114.73474 7813 ft 240 kts 271°
2026-05-05 03:50 36.07373 -114.75504 7573 ft 234 kts 265°
2026-05-05 03:51 36.07361 -114.77515 7304 ft 233 kts 266°
2026-05-05 03:51 36.07363 -114.79479 7074 ft 229 kts 266°
2026-05-05 03:51 36.07363 -114.81440 6839 ft 229 kts 266°
2026-05-05 03:51 36.07363 -114.83390 6606 ft 224 kts 266°
2026-05-05 03:52 36.07364 -114.85295 6310 ft 219 kts 266°
2026-05-05 03:52 36.07363 -114.87155 5998 ft 213 kts 266°
2026-05-05 03:52 36.07364 -114.88953 5727 ft 205 kts 267°
2026-05-05 03:52 36.07364 -114.90679 5481 ft 198 kts 267°
2026-05-05 03:53 36.07364 -114.92361 5209 ft 193 kts 266°
2026-05-05 03:53 36.07363 -114.94001 4932 ft 188 kts 266°
2026-05-05 03:53 36.07364 -114.95578 4710 ft 180 kts 266°
2026-05-05 03:53 36.07364 -114.97092 4467 ft 173 kts 267°
2026-05-05 03:54 36.07363 -114.98554 4233 ft 167 kts 266°
2026-05-05 03:54 36.07364 -114.99927 4038 ft 155 kts 266°
2026-05-05 03:54 36.07363 -115.01201 3854 ft 144 kts 266°
2026-05-05 03:54 36.07363 -115.02446 3669 ft 144 kts 266°
2026-05-05 03:55 36.07363 -115.03681 3471 ft 142 kts 266°
2026-05-05 03:55 36.07364 -115.04897 3323 ft 142 kts 265°
2026-05-05 03:55 36.07361 -115.06154 3133 ft 151 kts 266°
2026-05-05 03:55 36.07362 -115.07466 2912 ft 154 kts 266°
2026-05-05 03:56 36.07379 -115.08758 2728 ft 147 kts 265°
2026-05-05 03:56 36.07393 -115.09599 2538 ft 141 kts 262°
2026-05-05 03:56 36.07367 -115.10788 2340 ft 140 kts 264°
2026-05-05 03:56 36.07370 -115.12027 2173 ft 148 kts 266°
2026-05-05 03:57 36.07374 -115.13262 2080 ft 136 kts 264°
2026-05-05 03:57 36.07361 -115.14330 2120 ft 106 kts 270°
2026-05-05 03:57 36.07364 -115.14986 2133 ft 55 kts 269°
2026-05-05 03:57 36.07422 -115.15409 2145 ft 30 kts 302°
2026-05-05 03:58 36.07513 -115.15584 2148 ft 27 kts 306°
2026-05-05 03:58 36.07630 -115.15731 2148 ft 23 kts 316°
2026-05-05 03:58 36.07752 -115.15815 2152 ft 16 kts
2026-05-05 03:58 36.07807 -115.15711 2150 ft 21 kts 86°
2026-05-05 03:59 36.07806 -115.15482 2147 ft 32 kts 90°
2026-05-05 03:59 36.07805 -115.15230 2139 ft 20 kts 90°
2026-05-05 03:59 36.07801 -115.15039 2132 ft 24 kts 94°